FW5867 Weather Reports


time (UTC)temp
C
wind
direction
speed
KPH
gust
KPH
rain 1hr
cm
rain 24hr
cm
rain mn
cm
humidity
%
barometer
mb
20210916113358 16 87 3.2 6.4 0.00 1.83 0.00 54 1060.3
20210916112858 16 118 1.6 11.3 0.00 1.83 0.00 53 1060.2
20210916112358 17 130 3.2 11.3 0.00 1.83 0.00 53 1060.2
20210916111858 17 100 3.2 6.4 0.00 1.83 0.00 49 1060.6
20210916111357 17 92 3.2 8.0 0.00 1.83 0.00 49 1061.2
20210916110857 18 106 3.2 14.5 0.00 1.83 0.00 51 1062.3
20210916110357 17 185 1.6 16.1 0.00 1.83 0.00 52 1062.5
20210916105857 17 104 6.4 16.1 0.00 1.83 0.00 53 1062.1
20210916105357 17 96 4.8 11.3 0.00 1.83 0.00 53 1061.5
20210916104856 17 166 0.0 4.8 0.00 1.83 0.00 53 1061.1
20210916104357 17 106 1.6 6.4 0.00 1.83 0.00 53 1060.9
20210916103856 17 164 3.2 14.5 0.00 1.83 0.00 52 1060.9
20210916103357 17 111 4.8 14.5 0.00 1.88 0.00 50 1061.1
20210916102856 17 104 1.6 9.7 0.00 1.88 0.00 50 1061.3
20210916102356 18 154 3.2 6.4 0.00 1.91 0.00 50 1061.3
20210916101856 18 145 1.6 6.4 0.00 1.98 0.00 50 1061.3
20210916101356 18 47 3.2 6.4 0.00 1.98 0.00 49 1061.4
20210916100856 18 65 3.2 14.5 0.00 1.98 0.00 52 1062.0
20210916100356 17 219 4.8 14.5 0.00 1.98 0.00 49 1062.0
20210916095855 17 109 6.4 11.3 0.00 1.98 0.00 50 1061.6
20210916095356 17 80 4.8 9.7 0.00 2.03 0.00 52 1061.5
20210916094855 17 111 4.8 19.3 0.00 2.03 0.00 52 1061.6
20210916094356 16 148 4.8 19.3 0.00 2.03 0.00 54 1061.3
20210916093855 16 107 9.7 14.5 0.00 2.03 0.00 53 1061.4
20210916093356 16 97 4.8 17.7 0.00 2.03 0.00 54 1061.0
20210916092856 17 107 6.4 17.7 0.00 2.06 0.00 54 1061.2
20210916092355 16 111 3.2 19.3 0.00 2.08 0.00 56 1061.0
20210916091855 16 127 8.0 19.3 0.00 2.08 0.00 54 1060.7
20210916091354 16 69 8.0 11.3 0.00 2.08 0.00 54 1060.5
20210916090855 16 103 4.8 11.3 0.00 2.08 0.00 55 1060.5
20210916090355 16 85 4.8 14.5 0.00 2.08 0.00 57 1060.6
20210916085854 16 79 4.8 14.5 0.00 2.08 0.00 57 1060.6
20210916085354 16 92 1.6 9.7 0.00 2.08 0.00 56 1060.4
20210916084854 16 51 4.8 9.7 0.00 2.11 0.00 56 1060.6
20210916084354 16 243 1.6 9.7 0.00 2.11 0.00 58 1060.3
20210916083854 16 134 3.2 14.5 0.00 2.11 0.00 59 1060.0
20210916083354 15 109 6.4 14.5 0.00 2.11 0.00 59 1059.8
20210916082853 15 106 3.2 17.7 0.00 2.11 0.00 58 1059.6
20210916082354 15 131 8.0 17.7 0.00 2.11 0.00 58 1059.4
20210916081853 15 94 6.4 16.1 0.00 2.11 0.00 59 1059.9
20210916081354 15 69 8.0 16.1 0.00 2.11 0.00 60 1059.8
20210916080854 15 141 6.4 14.5 0.00 2.11 0.00 60 1060.1
20210916080353 14 164 6.4 14.5 0.00 2.11 0.00 61 1060.7
20210916075853 14 109 1.6 6.4 0.00 2.11 0.00 62 1060.5
20210916075354 14 111 4.8 11.3 0.00 2.11 0.00 62 1060.4
20210916074853 13 140 4.8 11.3 0.00 2.11 0.00 62 1060.3
20210916074352 13 75 1.6 4.8 0.00 2.11 0.00 63 1060.3
20210916073852 13 137 1.6 4.8 0.00 2.11 0.00 63 1060.2
20210916073352 13 161 1.6 4.8 0.00 2.11 0.00 63 1060.0
20210916072853 13 219 3.2 4.8 0.00 2.11 0.00 63 1060.2
20210916072352 13 49 3.2 6.4 0.00 2.11 0.00 63 1060.2
20210916071852 13 94 1.6 8.0 0.00 2.11 0.00 63 1060.1
20210916071352 13 83 1.6 9.7 0.00 2.11 0.00 63 1060.1
20210916070851 13 99 4.8 9.7 0.00 2.11 0.00 64 1060.2
20210916070352 13 114 1.6 8.0 0.00 2.11 0.00 64 1060.5
20210916065851 13 102 3.2 8.0 0.00 2.11 0.00 64 1060.1
20210916065352 13 118 3.2 11.3 0.00 2.11 0.00 65 1060.0
20210916064851 12 128 4.8 11.3 0.00 2.11 0.00 65 1059.9
20210916064352 12 116 3.2 6.4 0.00 2.11 0.00 66 1059.8
20210916063851 12 114 1.6 3.2 0.00 2.11 0.00 66 1059.9
20210916063351 12 135 0.0 3.2 0.00 2.11 0.00 66 1059.9
20210916062850 12 65 1.6 3.2 0.00 2.11 0.00 66 1059.9
20210916062351 12 102 0.0 3.2 0.00 2.11 0.00 66 1059.8
20210916061850 12 99 0.0 1.6 0.00 2.11 0.00 66 1059.9
20210916061351 12 107 0.0 1.6 0.00 2.11 0.00 66 1059.8
20210916060851 12 110 0.0 1.6 0.00 2.11 0.00 66 1059.8
20210916060350 12 75 0.0 4.8 0.00 2.11 0.00 66 1060.0
20210916055850 12 100 1.6 4.8 0.00 2.11 0.00 67 1059.5
20210916055350 12 135 1.6 4.8 0.00 2.11 0.00 67 1059.5
20210916054850 12 110 1.6 4.8 0.00 2.11 0.00 67 1059.5
20210916054350 12 75 0.0 1.6 0.00 2.11 0.00 67 1059.4
20210916053850 12 51 0.0 3.2 0.00 2.11 0.00 67 1059.3
20210916053350 12 73 1.6 3.2 0.00 2.11 0.00 67 1059.3
20210916052849 12 54 1.6 3.2 0.00 2.13 0.00 67 1059.3
20210916052349 12 79 0.0 3.2 0.00 2.13 0.00 67 1059.2
20210916051849 12 290 0.0 3.2 0.00 2.13 0.00 67 1059.2
20210916051349 12 78 0.0 3.2 0.00 2.13 0.00 67 1059.3
20210916050849 12 79 0.0 4.8 0.00 2.13 0.00 67 1059.4
20210916050349 12 123 0.0 4.8 0.00 2.16 0.00 67 1059.5
20210916045849 12 128 1.6 4.8 0.00 2.16 0.00 67 1059.5
20210916045349 12 135 0.0 4.8 0.00 2.16 0.00 67 1059.8
20210916044848 13 123 0.0 6.4 0.00 2.16 0.00 67 1059.9
20210916044349 13 97 0.0 6.4 0.00 2.16 0.00 67 1060.1
20210916043848 13 86 1.6 3.2 0.00 2.16 0.00 66 1060.2
20210916043348 13 116 0.0 9.7 0.00 2.16 0.00 66 1060.1
20210916042848 13 75 1.6 9.7 0.00 2.16 0.00 66 1059.6
20210916042348 13 118 1.6 4.8 0.00 2.16 0.00 66 1058.6
20210916041848 13 103 0.0 4.8 0.00 2.18 0.00 66 1058.7
20210916041348 13 116 0.0 4.8 0.00 2.21 0.00 66 1058.6
20210916040847 13 127 0.0 4.8 0.00 2.21 0.00 66 1058.6
20210916040348 13 118 1.6 4.8 0.00 2.21 0.00 66 1058.8
20210916035847 13 107 3.2 4.8 0.00 2.21 0.00 66 1058.7
20210916035347 13 124 0.0 6.4 0.00 2.29 0.00 66 1058.7
20210916034847 13 78 0.0 6.4 0.00 2.29 0.00 66 1058.6
20210916034347 13 97 0.0 3.2 0.00 2.29 0.00 66 1058.5
20210916033847 13 131 0.0 4.8 0.00 2.29 0.00 66 1058.6
20210916033347 13 141 0.0 4.8 0.00 2.29 0.00 66 1058.6
20210916032847 13 121 1.6 4.8 0.00 2.29 0.00 66 1058.6
20210916032346 13 142 0.0 4.8 0.00 2.29 0.00 66 1058.5
20210916031847 13 151 1.6 3.2 0.00 2.31 0.00 66 1058.4
20210916031346 13 233 0.0 6.4 0.00 2.31 0.00 66 1058.4
20210916030847 13 123 0.0 6.4 0.00 2.31 0.00 66 1058.5
20210916030346 13 192 1.6 4.8 0.00 2.31 0.00 66 1058.8
20210916025846 13 190 1.6 4.8 0.00 2.31 0.00 66 1058.5
20210916025346 13 148 1.6 8.0 0.00 2.31 0.00 66 1058.4
20210916024845 14 49 1.6 8.0 0.00 2.31 0.00 66 1058.4
20210916024346 14 140 1.6 4.8 0.00 2.31 0.00 66 1058.4
20210916023845 14 155 1.6 4.8 0.00 2.31 0.00 66 1058.5
20210916023346 14 127 1.6 4.8 0.00 2.31 0.00 66 1058.4
20210916022845 14 155 0.0 4.8 0.00 2.31 0.00 67 1058.5
20210916022345 14 159 0.0 3.2 0.00 2.31 0.00 67 1058.4
20210916021845 14 203 0.0 6.4 0.00 2.31 0.00 67 1058.4
20210916021345 14 133 0.0 6.4 0.00 2.31 0.00 67 1058.4
20210916020844 14 125 1.6 6.4 0.00 2.31 0.00 67 1058.4
20210916020345 14 140 0.0 6.4 0.00 2.31 0.00 67 1058.4
20210916015844 14 128 1.6 3.2 0.00 2.31 0.00 67 1058.3
20210916015345 15 152 0.0 3.2 0.00 2.31 0.00 67 1058.1
20210916014844 15 165 0.0 8.0 0.00 2.31 0.00 67 1057.9
20210916014345 15 196 3.2 8.0 0.00 2.31 0.00 67 1057.9
20210916013844 15 124 3.2 8.0 0.00 2.31 0.00 67 1057.9
20210916013344 15 92 3.2 9.7 0.00 2.31 0.00 67 1057.9
20210916012844 15 107 3.2 9.7 0.00 2.31 0.00 67 1057.9
20210916012344 15 86 1.6 6.4 0.00 2.31 0.00 67 1057.6
20210916011844 15 145 1.6 6.4 0.00 2.31 0.00 67 1057.8
20210916011344 15 124 0.0 4.8 0.00 2.31 0.00 67 1057.6
20210916010844 15 85 1.6 4.8 0.00 2.31 0.00 67 1057.8
20210916010343 15 72 1.6 4.8 0.00 2.31 0.00 67 1057.9
20210916005844 15 87 0.0 1.6 0.00 2.31 0.00 67 1057.8
20210916005343 15 116 0.0 3.2 0.00 2.31 0.00 67 1057.6
20210916004843 15 114 0.0 3.2 0.00 2.31 0.00 67 1057.8
20210916004343 15 93 1.6 3.2 0.00 2.31 0.00 67 1057.5
20210916003843 15 79 0.0 1.6 0.00 2.31 0.00 67 1057.5
20210916003343 15 56 0.0 1.6 0.00 2.31 0.00 67 1057.4
20210916002843 15 130 0.0 0.0 0.00 2.31 0.00 67 1057.3
20210916002342 15 123 0.0 1.6 0.00 2.31 0.00 67 1057.3
20210916001843 15 127 0.0 1.6 0.00 2.31 0.00 67 1057.2
20210916001342 15 100 0.0 3.2 0.00 2.31 0.00 67 1057.3
20210916000843 15 51 0.0 3.2 0.00 2.31 0.00 67 1057.4
20210916000342 15 76 0.0 4.8 0.00 2.31 0.00 67 1057.6
20210915235842 15 90 4.8 4.8 0.00 2.31 0.00 67 1057.3
20210915235342 15 89 0.0 3.2 0.00 2.31 0.00 67 1057.2
20210915234842 15 97 0.0 6.4 0.00 2.31 0.00 67 1057.2
20210915234342 15 106 4.8 6.4 0.00 2.31 0.00 67 1057.4
20210915233842 15 149 1.6 6.4 0.00 2.31 0.00 67 1057.4
20210915233341 15 117 3.2 6.4 0.00 2.31 0.00 67 1057.4
20210915232842 -17 121 1.6 1.6 0.00 2.31 0.00 1057.4
20210915232339 15 121 1.6 1.6 0.00 2.31 0.00 67 1057.4
20210915231840 15 130 1.6 3.2 0.00 2.31 0.00 67 1057.3
20210915231339 15 124 1.6 3.2 0.00 2.31 0.00 67 1057.3
20210915230840 15 118 1.6 3.2 0.00 2.31 0.00 67 1057.4
20210915230340 15 111 1.6 3.2 0.00 2.31 0.00 67 1057.6
20210915225839 15 93 1.6 3.2 0.00 2.31 0.00 67 1057.3
20210915225339 16 107 3.2 3.2 0.00 2.31 0.00 67 1057.4
20210915224839 16 90 1.6 3.2 0.00 2.31 0.00 67 1057.3
20210915224339 16 138 1.6 3.2 0.00 2.31 0.00 67 1057.2
20210915223839 16 133 1.6 3.2 0.00 2.31 0.00 67 1057.3
20210915223338 16 82 1.6 3.2 0.00 2.31 0.00 67 1057.3
20210915222839 16 118 0.0 4.8 0.00 2.31 0.00 67 1057.2
20210915222338 16 123 0.0 4.8 0.00 2.31 0.00 67 1057.2
20210915221839 16 155 1.6 4.8 0.00 2.31 0.00 67 1057.0
20210915221338 16 175 3.2 4.8 0.00 2.31 0.00 67 1057.0
20210915220838 16 159 0.0 8.0 0.00 2.31 0.00 67 1057.3
20210915220338 16 125 0.0 8.0 0.00 2.31 0.00 67 1057.5
20210915215837 16 92 3.2 6.4 0.00 2.31 2.31 67 1057.3
20210915215338 16 123 3.2 6.4 0.00 2.31 2.31 67 1057.2
20210915214837 16 131 3.2 8.0 0.00 2.31 2.31 67 1057.3
20210915214337 16 80 1.6 8.0 0.00 2.31 2.31 66 1057.2
20210915213837 16 121 3.2 6.4 0.00 2.31 2.31 66 1057.1
20210915213337 16 103 1.6 4.8 0.00 2.31 2.31 66 1057.0
20210915212837 16 89 1.6 3.2 0.00 2.31 2.31 66 1057.0
20210915212337 16 131 1.6 3.2 0.00 2.31 2.31 66 1057.0
20210915211837 16 128 0.0 3.2 0.00 2.31 2.31 66 1056.9
20210915211336 16 93 3.2 9.7 0.00 2.31 2.31 66 1056.8
20210915210837 16 138 1.6 9.7 0.00 2.31 2.31 66 1056.9
20210915210336 16 128 4.8 9.7 0.00 2.31 2.31 66 1057.1
20210915205837 16 135 1.6 4.8 0.00 2.31 2.31 67 1056.9
20210915205337 16 104 4.8 4.8 0.00 2.31 2.31 67 1056.8
20210915204836 16 124 0.0 1.6 0.00 2.31 2.31 67 1056.8
20210915204337 16 120 0.0 3.2 0.00 2.31 2.31 66 1056.9
20210915203836 16 134 0.0 3.2 0.00 2.31 2.31 66 1056.8
20210915203336 16 125 0.0 1.6 0.00 2.31 2.31 66 1056.7
20210915202836 16 130 1.6 1.6 0.00 2.31 2.31 66 1056.6
20210915202334 -17 0.0 0.0 0.00 2.31 2.31 1056.5
20210915201842 16 121 1.6 1.6 0.00 2.31 2.31 67 1056.4
20210915201332 16 121 1.6 1.6 0.00 2.31 2.31 67 1056.4
20210915200832 16 128 0.0 1.6 0.00 2.31 2.31 67 1056.5
20210915200332 16 169 1.6 6.4 0.00 2.31 2.31 67 1056.6
20210915195832 16 135 1.6 6.4 0.00 2.31 2.31 67 1056.3
20210915195332 16 154 1.6 6.4 0.00 2.31 2.31 67 1056.4
20210915194832 16 135 0.0 1.6 0.00 2.31 2.31 67 1056.3
20210915194332 16 116 1.6 1.6 0.00 2.31 2.31 67 1056.3
20210915193831 16 147 0.0 3.2 0.00 2.31 2.31 67 1056.3
20210915193331 16 165 1.6 3.2 0.00 2.31 2.31 67 1056.3
20210915192831 16 130 0.0 1.6 0.00 2.31 2.31 67 1056.1
20210915192331 16 164 0.0 4.8 0.00 2.31 2.31 67 1055.9
20210915191831 16 134 3.2 4.8 0.00 2.31 2.31 67 1055.9
20210915191331 16 128 0.0 1.6 0.00 2.31 2.31 67 1055.9
20210915190830 16 128 0.0 1.6 0.00 2.31 2.31 67 1055.6
20210915190331 16 128 1.6 1.6 0.00 2.31 2.31 67 1055.5
20210915185830 16 133 0.0 0.0 0.00 2.31 2.31 67 1055.3
20210915185331 17 133 0.0 1.6 0.00 2.31 2.31 67 1054.9
20210915184831 17 134 0.0 3.2 0.00 2.31 2.31 67 1054.9
20210915184331 17 159 1.6 4.8 0.03 2.31 2.31 67 1054.8
20210915183830 17 127 0.0 4.8 0.03 2.31 2.31 67 1054.8
20210915183331 17 109 1.6 3.2 0.03 2.31 2.31 67 1054.6
20210915182830 17 107 0.0 1.6 0.03 2.31 2.31 67 1054.4
20210915182330 17 103 0.0 3.2 0.03 2.31 2.31 67 1054.2
20210915181830 17 125 1.6 3.2 0.03 2.31 2.31 67 1054.1
20210915181329 17 158 0.0 4.8 0.03 2.31 2.31 67 1053.9
20210915180829 17 107 3.2 4.8 0.05 2.31 2.31 67 1054.1
20210915180329 17 186 0.0 1.6 0.05 2.31 2.31 67 1054.6
20210915175829 17 116 0.0 1.6 0.05 2.31 2.31 67 1055.1
20210915175329 17 142 0.0 4.8 0.05 2.31 2.31 67 1055.0
20210915174829 17 118 1.6 6.4 0.05 2.31 2.31 67 1054.9
20210915174329 17 189 1.6 6.4 0.03 2.31 2.31 67 1054.8
20210915173829 17 130 0.0 6.4 0.03 2.31 2.31 66 1054.7
20210915173329 17 169 3.2 8.0 0.03 2.31 2.31 66 1054.5
20210915172828 18 118 1.6 9.7 0.03 2.31 2.31 66 1054.5
20210915172329 18 212 3.2 14.5 0.03 2.31 2.31 66 1054.4
20210915171828 18 102 6.4 14.5 0.03 2.31 2.31 66 1054.2
20210915171328 18 118 9.7 11.3 0.03 2.31 2.31 66 1054.0
20210915170828 18 92 3.2 16.1 0.00 2.29 2.29 66 1053.8
20210915170328 18 114 3.2 16.1 0.00 2.29 2.29 66 1053.6
20210915165828 18 111 3.2 11.3 0.00 2.29 2.29 66 1053.0
20210915165327 19 128 6.4 8.0 0.00 2.29 2.29 66 1052.6
20210915164828 19 100 0.0 0.0 0.00 2.29 2.29 66 1052.0
20210915164328 -17 100 0.0 0.0 0.00 2.29 2.29 1051.5
20210915163825 19 100 0.0 0.0 0.00 2.29 2.29 66 1051.4
20210915163326 19 100 0.0 0.0 0.00 2.29 2.29 66 1051.3
20210915162825 19 97 0.0 1.6 0.00 2.29 2.29 66 1051.8
20210915162326 20 82 0.0 1.6 0.00 2.29 2.29 66 1053.3
20210915161825 20 56 0.0 3.2 0.00 2.29 2.29 66 1057.1
20210915161325 19 87 0.0 3.2 0.05 2.29 2.29 66 1058.1
20210915160825 19 85 0.0 1.6 0.05 2.29 2.29 66 1061.1
20210915160325 19 123 0.0 0.0 0.05 2.29 2.29 67 1061.8
20210915155825 19 123 0.0 1.6 0.05 2.29 2.29 67 1060.0
20210915155324 19 138 1.6 1.6 0.05 2.29 2.29 67 1057.9
20210915154825 19 148 0.0 1.6 0.05 2.29 2.29 67 1056.4
20210915154324 19 56 0.0 1.6 0.08 2.29 2.29 67 1055.9
20210915153825 19 38 0.0 1.6 0.08 2.29 2.29 67 1056.1
20210915153325 19 61 1.6 1.6 0.08 2.29 2.29 67 1056.3
20210915152824 18 28 0.0 0.0 0.08 2.29 2.29 67 1055.2
20210915152324 18 28 0.0 0.0 0.66 2.29 2.29 67 1055.0
20210915151822 18 28 0.0 0.0 0.66 2.29 2.29 67 1055.1
20210915151322 18 28 0.0 0.0 0.61 2.21 2.21 67 1054.8
20210915150822 18 30 0.0 0.0 0.61 2.21 2.21 67 1054.5
20210915150322 18 116 0.0 0.0 0.61 2.21 2.21 67 1054.3
20210915145821 18 116 0.0 1.6 0.61 2.21 2.21 67 1054.0
20210915145322 18 120 0.0 1.6 1.27 2.21 2.21 67 1054.0
20210915144821 18 120 0.0 1.6 1.27 2.21 2.21 67 1054.1
20210915144322 18 137 1.6 1.6 1.32 2.21 2.21 58 1054.0
20210915143821 18 166 0.0 1.6 1.68 2.21 2.21 58 1054.1
20210915143322 18 145 0.0 1.6 1.68 2.21 2.21 58 1054.2
20210915142821 18 164 1.6 1.6 1.68 2.21 2.21 58 1054.3
20210915142320 -17 82 0.0 0.0 1.09 1.63 1.63 1054.2
20210915141818 -17 82 0.0 0.0 1.09 1.63 1.63 1054.1
20210915141317 -17 0.0 0.0 1.09 1.63 1.63 1053.6
20210915140816 -17 0.0 0.0 1.09 1.63 1.63 1053.3
20210915140314 19 138 1.6 1.6 1.09 1.63 1.63 58 1053.4
20210915135812 19 138 1.6 1.6 1.09 1.63 1.63 58 1053.3
20210915135313 19 137 0.0 4.8 0.43 0.97 0.97 58 1053.2
20210915134812 19 114 1.6 14.5 0.43 0.97 0.97 58 1053.3
20210915134312 20 72 6.4 14.5 0.33 0.86 0.86 58 1053.1
20210915134043 21 76 4.8 8.0 0.00 0.51 0.51 60 1053.1
20210915133313 21 127 3.2 6.4 0.00 0.51 0.51 60 1053.5
20210915132811 21 27 3.2 6.4 0.00 0.51 0.51 61 1054.3
20210915132312 21 28 1.6 4.8 0.00 0.51 0.51 61 1054.8
20210915131811 21 31 3.2 8.0 0.00 0.51 0.51 61 1054.5
20210915131312 20 31 4.8 8.0 0.00 0.51 0.51 61 1054.3
20210915130811 20 34 3.2 6.4 0.00 0.51 0.51 64 1054.4
20210915130311 20 61 4.8 11.3 0.00 0.51 0.51 64 1054.9
20210915125811 20 35 6.4 11.3 0.00 0.51 0.51 66 1055.0
20210915125310 20 28 3.2 4.8 0.00 0.51 0.51 66 1055.2
20210915124811 20 11 1.6 6.4 0.00 0.51 0.51 66 1055.1
20210915124311 20 24 1.6 6.4 0.00 0.51 0.51 66 1054.5
20210915123810 20 32 1.6 3.2 0.03 0.51 0.51 66 1054.0
20210915123310 20 17 1.6 3.2 0.03 0.51 0.51 66 1054.0
20210915122810 20 0 0.0 3.2 0.03 0.51 0.51 66 1054.5
20210915122308 20 16 3.2 3.2 0.03 0.51 0.51 67 1055.4
20210915121809 20 18 1.6 6.4 0.03 0.51 0.51 67 1055.6
20210915121308 20 3 1.6 6.4 0.03 0.51 0.51 67 1055.9
20210915120808 20 7 3.2 6.4 0.03 0.51 0.51 67 1056.3
20210915120308 20 20 4.8 6.4 0.05 0.51 0.51 67 1056.8
20210915115808 -17 227 0.0 3.2 0.05 0.51 0.51 1056.7
20210915115308 20 49 0.0 6.4 0.05 0.51 0.51 67 1056.9
20210915114808 20 13 4.8 11.3 0.05 0.51 0.51 67 1057.0
20210915114307 19 37 6.4 11.3 0.05 0.51 0.51 67 1057.0
20210915113808 19 31 3.2 6.4 0.05 0.51 0.51 67 1056.7